Theta_e
315 316 316 316 318 317 317 318 318 318 318 317 318 318 318 318 318 317 317 317 317 317 317 317 318 318 320 323 324 314 314 331 337 334 336 337 340 336 338 328 325 324 323 322
316 315 315 316 316 316 316 316 316 317 317 317 317 318 318 318 318 317 317 317 317 317 317 316 316 317 321 318 316 314 313 315 330 343 336 334 338 333 337 338 334 331 327 324
315 316 315 314 314 314 315 315 316 316 317 317 316 317 317 318 317 316 316 316 316 317 317 316 316 318 319 320 319 314 313 313 315 327 340 341 336 332 333 335 337 335 334 327
316 315 313 314 314 315 316 316 316 315 315 316 317 317 319 318 317 317 316 316 316 316 316 316 316 317 318 318 319 321 317 313 316 315 320 334 346 337 335 338 340 334 335 333
315 315 314 314 315 315 315 315 315 315 315 316 316 317 317 318 317 317 317 316 316 317 317 317 317 317 317 317 318 320 322 322 315 313 314 322 326 339 346 348 349 348 346 340
316 315 315 315 314 315 314 315 315 315 316 317 317 317 317 318 317 317 316 315 315 317 317 317 317 317 317 317 317 319 321 322 317 314 317 323 322 325 331 335 340 347 346 336
317 316 316 315 314 314 315 315 316 317 318 318 317 316 317 318 317 317 316 315 315 316 317 317 317 316 317 317 317 318 319 320 322 322 315 314 323 317 323 321 326 341 346 347
317 317 318 317 315 315 316 317 319 321 319 317 317 317 317 317 316 315 315 315 315 316 317 317 317 316 317 317 317 317 319 320 321 323 323 320 318 321 325 326 331 332 333 343
318 318 316 316 316 315 315 316 316 317 317 318 318 317 318 317 316 316 316 315 315 315 317 317 316 316 316 317 317 317 318 320 321 322 324 325 325 321 315 318 323 334 333 330
315 317 317 316 315 315 315 316 319 318 317 317 316 317 317 318 317 317 317 316 316 316 316 316 315 315 315 316 317 317 319 320 320 321 321 322 324 324 324 321 315 315 320 330
314 315 316 316 317 316 315 316 316 317 317 320 319 318 318 318 318 317 317 316 315 316 316 315 314 314 315 316 316 316 316 318 319 319 320 321 325 326 324 323 324 318 315 317
314 316 316 314 315 316 316 317 318 321 319 316 316 316 317 317 317 316 316 316 316 316 315 315 315 315 315 315 315 315 315 315 317 318 318 319 322 326 326 323 322 318 322 327
315 317 319 316 316 314 313 313 314 316 319 318 319 320 318 317 317 316 317 316 316 316 316 315 315 315 315 314 314 315 315 315 316 317 318 318 319 324 327 327 326 322 323 332
312 313 314 315 315 315 316 314 315 315 318 315 316 316 317 318 317 317 316 316 316 315 316 315 315 315 314 314 313 314 314 315 316 317 317 318 319 322 326 328 329 327 328 332
312 314 314 314 314 314 314 314 314 314 314 315 316 316 316 316 317 317 316 316 316 316 315 315 315 314 313 313 313 312 312 314 316 316 317 318 319 321 325 328 329 329 328 331
312 316 314 315 313 312 312 312 312 313 315 315 316 317 317 317 316 317 316 316 316 315 315 314 313 313 312 312 312 313 313 313 315 316 316 318 319 321 324 327 328 331 330 332
314 315 314 315 312 313 313 314 315 317 315 315 318 317 316 316 316 316 315 314 314 314 313 313 313 311 310 310 312 311 312 313 315 315 316 318 318 320 323 326 328 329 332 333
312 312 314 314 313 314 314 316 316 315 314 315 315 315 315 316 315 314 313 313 313 313 313 312 312 311 310 311 312 311 312 312 314 315 315 317 318 319 323 325 327 328 332 335
311 311 314 315 316 316 314 316 317 317 316 314 315 317 316 314 313 314 312 313 313 312 311 310 310 310 310 310 309 310 312 310 310 314 315 317 318 320 323 324 328 329 333 335
313 311 314 316 318 315 313 316 314 314 316 317 315 315 313 312 314 315 312 311 310 310 310 310 309 309 310 310 311 310 311 313 313 313 316 317 318 320 323 324 329 329 334 337
314 313 315 314 315 314 315 314 313 316 317 313 313 312 312 314 313 310 309 309 309 309 310 309 309 309 309 310 309 310 313 313 314 315 316 318 318 319 323 326 329 333 336 339
314 316 316 316 318 317 314 314 316 315 313 312 311 311 310 309 309 309 308 309 309 309 309 308 308 309 309 309 311 311 311 313 314 316 317 316 318 320 323 328 331 337 335 335
316 316 317 316 317 314 313 313 312 312 311 311 309 308 308 309 309 309 309 308 307 307 307 307 307 308 309 310 311 312 312 314 316 316 316 317 317 319 327 330 335 335 335 339
313 313 315 314 314 312 311 311 311 310 309 307 307 308 307 307 307 306 306 306 306 306 307 307 307 307 308 309 310 310 311 314 316 317 316 314 317 324 329 334 335 336 338 339
310 311 311 311 311 308 309 309 310 308 308 307 306 305 305 305 305 304 304 304 304 305 305 305 306 306 307 308 310 312 313 315 316 318 318 321 324 328 331 335 336 338 338 338
307 308 308 308 305 306 306 308 309 308 307 307 304 305 305 305 304 303 303 303 304 304 304 305 305 306 306 308 310 313 317 318 319 321 324 325 330 334 334 334 336 336 336 334
Wind_Speed
18 12 14 16 16 15 14 16 13 7 10 5 14 17 18 19 21 20 21 22 21 20 19 16 11 8 3 2 5 4 4 11 23 42 38 20 26 25 31 34 34 36 36 31
10 14 16 17 7 10 14 16 16 15 10 9 16 19 19 18 18 22 22 24 22 19 16 15 14 12 6 12 12 6 7 8 13 24 49 48 36 35 26 29 29 35 35 36
14 17 10 3 11 14 15 16 15 14 9 10 18 23 24 26 29 21 20 21 18 19 13 14 14 13 8 7 11 10 11 11 10 15 22 25 42 45 39 43 43 40 37 35
11 12 3 10 13 12 15 12 12 10 10 12 2 12 9 7 9 10 10 9 13 14 15 12 12 12 9 7 5 5 10 12 7 11 11 19 21 37 51 51 42 42 43 41
15 11 10 14 13 7 12 2 9 13 14 16 20 12 15 18 16 12 9 10 9 9 9 7 6 4 4 3 4 4 6 8 9 11 14 15 24 22 26 30 28 28 30 30
17 15 11 12 14 13 10 10 15 17 15 16 20 18 14 13 15 16 9 8 6 7 6 5 3 4 5 6 6 6 6 7 12 11 10 13 19 22 22 23 24 27 27 33
21 21 21 18 15 15 13 13 12 15 13 14 5 6 12 8 6 5 3 5 6 9 9 7 7 7 8 9 10 10 8 9 10 11 14 15 18 19 22 23 25 22 23 24
17 18 18 18 17 16 12 14 11 8 11 5 11 7 11 9 11 3 7 8 7 10 9 8 8 9 11 12 12 12 13 14 13 11 14 16 20 17 20 20 19 19 23 24
12 12 7 12 13 15 12 10 10 13 19 14 16 16 12 11 8 7 8 8 6 10 10 10 13 13 13 13 14 16 15 15 15 15 15 16 18 22 23 24 25 20 21 28
16 12 9 7 10 13 12 9 6 8 13 18 16 17 13 20 17 9 6 6 5 7 11 15 19 19 19 17 17 16 17 18 18 17 18 18 19 19 21 24 27 27 28 26
13 12 15 8 11 18 11 16 16 16 10 6 11 6 11 1 5 2 4 6 9 14 17 19 21 19 21 22 21 21 21 20 21 20 19 20 21 21 22 24 25 27 29 31
9 7 12 19 14 16 15 16 15 6 14 12 14 17 12 9 5 4 8 17 16 13 17 19 19 19 20 22 25 26 25 26 25 24 22 21 22 22 24 25 27 30 27 28
5 4 7 12 13 13 13 16 17 16 14 21 14 13 2 9 9 13 17 17 17 17 18 17 22 24 23 23 25 26 28 28 28 27 26 25 24 24 25 26 26 28 26 26
7 11 15 14 14 3 7 11 12 11 10 16 19 23 21 16 15 17 21 22 23 24 21 22 25 26 28 30 31 31 31 30 30 28 29 27 26 27 25 26 26 27 26 26
9 16 18 21 21 18 17 19 19 20 19 19 22 24 22 21 20 21 20 21 22 21 28 31 29 33 37 38 37 40 41 35 32 29 29 29 28 27 26 25 27 27 28 28
5 9 14 16 17 17 18 18 19 21 23 24 25 26 25 33 21 20 21 23 20 27 31 32 36 37 35 38 38 36 37 35 33 29 31 29 28 27 27 28 28 28 29 28
6 5 6 13 10 12 12 19 14 21 16 16 21 21 17 20 18 20 23 24 27 33 39 38 37 34 33 36 34 36 33 33 30 32 32 31 29 29 29 27 27 29 30 29
13 12 7 9 13 13 3 14 19 11 13 16 19 20 20 21 26 28 31 33 37 39 33 34 37 37 37 34 37 36 38 39 32 34 34 32 30 29 29 29 31 30 30 30
10 8 5 4 8 16 15 9 11 14 18 20 22 16 20 28 35 34 31 32 33 37 40 37 37 39 41 37 41 38 39 40 41 37 35 31 29 30 30 31 34 31 30 31
6 9 7 7 5 5 10 7 10 13 17 14 19 20 24 30 17 20 31 38 42 44 39 39 42 43 42 39 36 37 39 36 35 37 34 30 30 31 32 34 32 33 31 32
4 4 11 11 7 10 8 12 21 12 13 31 30 31 32 24 26 49 45 45 43 46 43 44 39 37 38 38 40 38 34 36 34 32 32 31 32 34 32 34 35 33 32 33
4 3 5 7 6 7 14 20 10 18 31 32 36 36 40 42 45 45 48 48 45 45 43 43 41 40 39 36 34 37 38 36 32 30 31 29 32 33 32 33 30 33 33 34
2 2 3 4 5 20 21 22 26 26 31 36 38 37 41 46 48 48 46 48 46 43 44 42 40 41 39 37 34 35 38 33 29 32 32 31 35 32 29 30 32 33 34 37
7 10 3 10 6 21 25 26 24 29 35 37 40 42 46 44 44 45 42 42 42 42 40 41 41 42 40 34 35 36 32 30 32 35 36 38 36 30 30 32 31 37 43 40
4 9 8 14 16 22 14 25 29 33 35 41 41 45 39 38 41 41 43 43 43 43 44 42 43 43 42 34 32 28 28 28 33 36 36 34 32 30 31 34 39 43 41 38
2 2 3 5 23 21 27 34 36 35 39 36 46 46 41 38 40 41 41 43 45 46 47 45 42 42 42 33 29 25 24 27 31 32 29 29 27 38 36 40 36 33 34 33
Wind_Direction
217 243 240 248 240 254 303 286 294 255 225 216 265 265 258 246 229 238 243 238 239 228 229 231 235 241 186 233 283 230 237 221 220 225 246 233 227 234 244 241 243 250 254 252
245 244 252 270 294 275 261 261 257 262 260 264 273 271 269 261 256 255 248 241 237 232 222 233 232 232 233 256 268 277 267 243 203 227 223 236 243 244 261 266 250 244 241 245
254 286 354 285 246 243 250 259 263 270 287 293 269 263 258 245 243 248 250 243 239 238 224 235 230 222 221 216 246 250 247 257 224 209 213 229 238 234 243 262 259 250 253 240
253 270 245 230 240 258 263 271 236 282 268 265 356 283 307 177 213 211 201 199 209 220 222 227 217 218 216 220 223 256 263 253 260 247 230 217 237 232 230 241 256 256 253 247
266 244 216 256 255 274 280 8 273 263 268 275 263 249 262 242 183 178 188 176 190 200 208 213 202 207 233 235 247 251 260 271 258 237 236 219 235 233 236 236 239 238 244 240
252 249 255 273 300 303 270 276 257 250 249 250 251 246 246 192 196 175 182 204 202 212 183 202 240 273 277 277 269 263 277 283 288 274 254 247 237 228 237 237 241 241 256 248
249 246 232 218 243 259 253 250 258 245 221 239 192 201 243 84 136 120 238 263 251 201 206 213 255 279 293 289 278 283 288 291 286 288 278 274 262 258 258 248 236 236 241 240
280 269 228 242 217 249 233 281 277 273 282 295 152 225 235 211 154 251 257 247 264 253 235 238 267 277 293 296 298 281 283 290 292 291 288 284 275 269 263 268 263 250 244 242
287 290 30 234 246 225 233 252 304 293 283 275 273 284 152 175 185 199 234 241 274 258 243 263 275 280 282 285 289 290 286 283 285 288 287 280 276 271 264 257 251 255 259 238
292 285 239 221 274 257 240 242 277 246 255 256 262 255 247 177 189 167 239 233 268 281 274 268 271 274 280 282 281 279 278 281 279 281 284 286 283 276 268 267 262 260 253 251
287 272 265 234 222 248 213 234 231 253 238 265 280 260 47 107 98 137 236 254 278 291 290 291 282 276 274 276 279 278 276 272 274 276 277 283 285 279 269 263 266 264 262 255
289 284 271 268 239 251 247 237 263 242 238 237 259 273 279 241 93 83 258 252 281 294 287 300 296 292 288 283 281 278 277 276 271 269 272 273 277 278 272 265 258 257 259 262
338 287 292 279 268 218 250 250 240 214 257 258 256 253 8 168 216 236 261 288 284 268 264 281 290 290 292 295 291 283 276 273 271 267 266 267 270 271 272 267 260 253 252 252
297 285 272 279 304 213 253 290 282 269 268 271 262 268 259 255 296 290 293 293 288 289 286 286 280 278 281 286 287 286 277 269 267 265 264 263 265 264 265 264 263 256 250 248
246 270 279 284 272 263 250 251 245 253 261 257 268 271 284 291 289 280 301 299 306 293 290 289 291 290 288 286 282 283 274 266 260 259 259 257 261 265 263 260 257 253 247 243
268 268 274 284 270 264 265 266 266 256 252 262 265 267 264 263 330 295 277 285 294 291 291 292 288 287 296 292 288 280 281 261 255 259 262 258 258 263 259 259 255 252 247 241
289 265 295 280 305 309 270 258 264 295 305 288 284 280 292 293 296 326 330 321 305 294 296 293 290 290 291 288 280 282 279 287 260 259 260 258 258 262 258 255 251 248 246 238
256 278 287 284 297 267 296 2 309 327 321 313 309 312 317 321 319 312 314 303 297 294 293 290 290 291 290 281 276 277 272 272 274 259 258 255 255 257 252 251 253 247 245 235
233 262 274 262 283 287 302 19 9 345 313 299 289 329 330 316 307 293 301 298 290 292 291 294 291 289 285 279 277 269 270 263 258 263 256 252 253 253 251 249 254 246 241 228
190 212 252 294 296 284 313 29 351 321 297 9 341 322 318 313 293 294 307 299 295 296 299 301 296 291 283 279 275 270 266 258 250 255 249 248 252 245 253 244 253 241 229 220
177 214 230 247 263 273 26 352 329 285 316 329 320 316 306 304 296 299 299 300 297 297 294 295 290 285 281 278 277 271 263 262 254 250 248 247 248 252 248 245 242 234 215 207
219 227 216 250 239 270 345 334 324 317 313 316 310 305 301 304 304 301 297 297 297 297 293 291 287 281 278 275 271 264 268 257 255 249 247 248 248 252 246 244 231 209 207 205
349 360 285 297 282 309 323 316 319 317 313 306 309 324 313 304 300 301 300 298 296 290 287 285 281 280 276 273 268 260 262 259 252 247 246 242 246 256 246 230 207 207 199 183
353 8 319 330 324 327 322 317 314 316 310 323 317 316 313 304 302 298 296 293 289 287 284 283 281 277 276 271 268 265 258 249 246 246 250 253 250 243 230 211 209 187 171 164
2 311 342 296 301 330 297 317 311 322 323 323 323 314 305 302 299 299 295 294 291 288 284 280 275 275 272 269 266 259 248 240 237 241 243 244 242 227 206 187 176 167 167 172
355 355 292 280 307 296 284 299 308 327 331 324 325 317 312 308 302 302 299 298 295 293 292 286 276 266 265 255 254 247 241 231 236 239 235 235 196 165 168 165 155 156 156 160